Погода в Кванджу

Южная Корея     35°09′15″N   126°51′12″E
темп.,
°C
ветер,
м/с
пор.,
м/с
влажн.,
%
обл.,
%
осадки,
мм/ч
давл.,
гПа
погр.,
м
20 июня, вс
вс2000:00+18в118394 0.0 100218
03:00+17юв11826 0.0 100217
06:00+17юв0086100 0.0 100217
09:00+23ююз125283 0.0 1003339
12:00+29ююз333534 0.0 10021029
15:00+30зюз55305 0.0 10011435
18:00+26юз36484 0.0 1002511
21:00+20юз137469 0.0 1003101
21 июня, пн
пн2100:00+19юз11865 0.0 100330
03:00+18ююв009217 0.0 100324
06:00+18ссв1191100 0.0 100424
09:00+24с1355100 0.0 1005533
12:00+28с3538100 0.0 10041577
15:00+29ссз46325 0.0 10041857
18:00+27ссз35433 0.0 1004645
21:00+20ссз22631 0.0 100643
22 июня, вт
вт2200:00+19св11650 0.0 100725
03:00+18св126349 0.0 100726
06:00+17всв116893 0.0 100827
09:00+24вюв114989 0.0 1009322
12:00+29ююз223498 0.0 10081181
15:00+28з654351 0.0 10071149
18:00+25зсз445524 0.0 1008816
21:00+20ссз117853 0.0 100954
23 июня, ср
ср2300:00+20ююв118169 0.0 101061
03:00+19юв128474 0.0 101092
06:00+18юв11891 0.0 101058
09:00+23ююв226517 0.0 1011742
12:00+26ююз225365 0.3 10101515
15:00+23з127398 1.1 1010559
18:00+22ссз127766 0.7 1010321
21:00+20ссв118777 1.2 101124
24 июня, чт
чт2400:00+19ю1190100 0.2 101158
03:00+18ю1191100 0.3 101167
06:00+18ю119169 0.1 101176
09:00+21юв017957 0.3 1011454
12:00+25зсз226499 1.9 10101125
15:00+24зсз227197 5.4 1009807
18:00+22сз237743 2.7 1009563
21:00+19сз11905 3.4 101012